Daten der privaten, lokalen Wetterstation von Stefan Zilt in Osnabrck
Wetterdaten: aktuell Dienstag, 21.05.2024 15:10
Datum Zeit Temp. NORD Luftfeuchte Luftdruck Regen Wind Windrichtung Windrichtung Sonnenschein Helligkeit
21.05.2024 15:10 29,3 C 0 % 993 hPa 0,0 l/m 16,6 km/h O67.5 85 0 min 55,3 klux
21.05.2024 15:05 29,6 C 0 % 993 hPa 0,0 l/m 15,1 km/h O-NO67.5 75 0 min 49,8 klux
21.05.2024 15:00 30,2 C 0 % 993 hPa 0,0 l/m 14,6 km/h O67.5 85 0 min 56,3 klux
21.05.2024 14:55 29,8 C 0 % 993 hPa 0,0 l/m 19,7 km/h O45 80 0 min 59,9 klux
21.05.2024 14:50 29,6 C 0 % 993 hPa 0,0 l/m 24,8 km/h O-NO22.5 65 0 min 53,8 klux
21.05.2024 14:45 30,2 C 0 % 993 hPa 0,0 l/m 17,8 km/h O-SO67.5 105 0 min 51,1 klux
21.05.2024 14:40 30,8 C 0 % 993 hPa 0,0 l/m 18,3 km/h O67.5 90 0 min 59,5 klux
21.05.2024 14:35 31,1 C 0 % 993 hPa 0,0 l/m 16,7 km/h O-SO67.5 115 0 min 57,0 klux
21.05.2024 14:30 31,3 C 0 % 993 hPa 0,0 l/m 14,3 km/h O67.5 90 0 min 54,7 klux
21.05.2024 14:25 31,9 C 0 % 993 hPa 0,0 l/m 16,0 km/h O45 95 0 min 57,2 klux
21.05.2024 14:20 32,2 C 0 % 993 hPa 0,0 l/m 23,6 km/h O-NO67.5 70 5 min 72,2 klux
21.05.2024 14:15 32,6 C 0 % 993 hPa 0,0 l/m 20,8 km/h O-SO45 115 5 min 73,6 klux
21.05.2024 14:10 32,1 C 0 % 994 hPa 0,0 l/m 23,6 km/h O45 85 5 min 77,6 klux
21.05.2024 14:05 32,8 C 0 % 994 hPa 0,0 l/m 18,1 km/h O67.5 85 5 min 77,2 klux
21.05.2024 14:00 33,2 C 0 % 994 hPa 0,0 l/m 16,5 km/h O-SO45 115 5 min 79,1 klux
21.05.2024 13:55 33,1 C 0 % 994 hPa 0,0 l/m 27,5 km/h O-SO67.5 105 5 min 80,8 klux
21.05.2024 13:50 33,1 C 0 % 994 hPa 0,0 l/m 23,0 km/h O67.5 90 5 min 79,4 klux
21.05.2024 13:45 32,6 C 0 % 994 hPa 0,0 l/m 27,1 km/h O67.5 80 5 min 76,9 klux
21.05.2024 13:40 32,2 C 0 % 994 hPa 0,0 l/m 24,9 km/h O-SO67.5 115 5 min 79,9 klux
21.05.2024 13:35 32,9 C 0 % 994 hPa 0,0 l/m 21,3 km/h O45 100 5 min 81,6 klux
21.05.2024 13:30 32,8 C 0 % 994 hPa 0,0 l/m 24,1 km/h O67.5 85 5 min 81,0 klux
21.05.2024 13:25 33,0 C 0 % 994 hPa 0,0 l/m 23,5 km/h O67.5 95 5 min 82,4 klux
21.05.2024 13:20 33,0 C 0 % 994 hPa 0,0 l/m 15,1 km/h O45 80 5 min 83,3 klux
21.05.2024 13:15 32,8 C 0 % 994 hPa 0,0 l/m 27,0 km/h O-NO45 65 5 min 87,2 klux
21.05.2024 13:10 33,8 C 0 % 994 hPa 0,0 l/m 16,8 km/h O-NO45 75 5 min 86,3 klux
21.05.2024 13:05 34,0 C 0 % 994 hPa 0,0 l/m 19,9 km/h O-NO67.5 75 5 min 84,3 klux
21.05.2024 13:00 34,0 C 0 % 994 hPa 0,0 l/m 19,3 km/h O-SO22.5 105 5 min 87,7 klux
21.05.2024 12:55 33,5 C 0 % 994 hPa 0,0 l/m 23,5 km/h O67.5 95 5 min 89,4 klux
21.05.2024 12:50 32,6 C 0 % 994 hPa 0,0 l/m 24,9 km/h O-NO67.5 60 5 min 85,9 klux
21.05.2024 12:45 32,2 C 0 % 994 hPa 0,0 l/m 23,0 km/h O67.5 80 5 min 87,2 klux
21.05.2024 12:40 32,0 C 0 % 994 hPa 0,0 l/m 27,3 km/h NO67.5 55 5 min 83,8 klux
21.05.2024 12:35 31,6 C 0 % 994 hPa 0,0 l/m 29,8 km/h O67.5 90 5 min 86,0 klux
21.05.2024 12:30 31,6 C 0 % 995 hPa 0,0 l/m 29,8 km/h O-NO67.5 75 5 min 84,4 klux
21.05.2024 12:25 31,6 C 0 % 995 hPa 0,0 l/m 25,2 km/h O-NO45 70 5 min 83,3 klux
21.05.2024 12:20 31,2 C 0 % 995 hPa 0,0 l/m 19,6 km/h O45 85 5 min 83,4 klux
21.05.2024 12:15 31,4 C 0 % 995 hPa 0,0 l/m 22,9 km/h O45 85 5 min 82,5 klux
21.05.2024 12:10 30,0 C 0 % 995 hPa 0,0 l/m 21,6 km/h O45 80 5 min 81,7 klux
21.05.2024 12:05 28,5 C 0 % 995 hPa 0,0 l/m 27,9 km/h O-NO67.5 65 5 min 80,1 klux
21.05.2024 12:00 26,0 C 0 % 995 hPa 0,0 l/m 20,0 km/h O-NO45 60 5 min 77,3 klux
21.05.2024 11:55 25,4 C 22 % 995 hPa 0,0 l/m 15,1 km/h O67.5 80 5 min 77,5 klux
21.05.2024 11:50 25,2 C 23 % 995 hPa 0,0 l/m 22,1 km/h NO67.5 55 5 min 76,9 klux
21.05.2024 11:45 24,3 C 23 % 995 hPa 0,0 l/m 22,1 km/h NO67.5 55 5 min 75,7 klux
21.05.2024 11:40 23,5 C 22 % 995 hPa 0,0 l/m 30,8 km/h O-NO45 60 5 min 75,8 klux
21.05.2024 11:35 23,8 C 24 % 995 hPa 0,0 l/m 22,1 km/h O-NO45 70 5 min 78,5 klux
21.05.2024 11:30 23,8 C 24 % 995 hPa 0,0 l/m 20,0 km/h O-NO67.5 70 5 min 74,1 klux
21.05.2024 11:25 23,8 C 24 % 995 hPa 0,0 l/m 19,5 km/h O-NO45 75 5 min 65,8 klux
21.05.2024 11:20 23,4 C 24 % 995 hPa 0,0 l/m 16,5 km/h O-NO45 75 5 min 69,6 klux
21.05.2024 11:15 23,4 C 24 % 995 hPa 0,0 l/m 22,7 km/h O-NO67.5 70 5 min 68,9 klux
21.05.2024 11:10 23,4 C 25 % 995 hPa 0,0 l/m 20,4 km/h O-NO22.5 65 5 min 70,1 klux
21.05.2024 11:05 23,4 C 25 % 995 hPa 0,0 l/m 22,3 km/h O-NO45 65 5 min 69,6 klux
21.05.2024 11:00 23,1 C 26 % 995 hPa 0,0 l/m 15,6 km/h O-NO67.5 75 5 min 66,7 klux
21.05.2024 10:55 22,7 C 27 % 995 hPa 0,0 l/m 16,8 km/h O67.5 85 5 min 67,5 klux
21.05.2024 10:50 22,0 C 29 % 995 hPa 0,0 l/m 18,3 km/h O-NO67.5 75 5 min 69,6 klux
21.05.2024 10:45 21,6 C 31 % 995 hPa 0,0 l/m 16,9 km/h O67.5 80 5 min 67,1 klux
21.05.2024 10:40 21,3 C 31 % 995 hPa 0,0 l/m 21,5 km/h O-NO45 70 5 min 69,7 klux
21.05.2024 10:35 20,7 C 31 % 995 hPa 0,0 l/m 24,7 km/h O-NO67.5 75 5 min 69,4 klux
21.05.2024 10:30 20,6 C 32 % 995 hPa 0,0 l/m 15,5 km/h O-SO67.5 105 5 min 67,6 klux
21.05.2024 10:25 20,1 C 34 % 995 hPa 0,0 l/m 18,0 km/h O-NO67.5 60 5 min 64,7 klux
21.05.2024 10:20 20,0 C 33 % 996 hPa 0,0 l/m 22,1 km/h O-NO67.5 60 5 min 66,9 klux
21.05.2024 10:15 19,7 C 35 % 996 hPa 0,0 l/m 18,3 km/h O-NO67.5 70 5 min 65,8 klux
21.05.2024 10:10 19,1 C 35 % 996 hPa 0,0 l/m 16,6 km/h O-NO67.5 65 5 min 63,4 klux
21.05.2024 10:05 18,4 C 37 % 996 hPa 0,0 l/m 10,7 km/h O-NO67.5 75 5 min 59,9 klux
21.05.2024 10:00 18,4 C 37 % 996 hPa 0,0 l/m 12,2 km/h O67.5 90 5 min 65,1 klux
21.05.2024 09:55 18,1 C 37 % 996 hPa 0,0 l/m 18,4 km/h O-NO45 65 5 min 64,0 klux
21.05.2024 09:50 17,9 C 38 % 996 hPa 0,0 l/m 16,4 km/h O45 80 5 min 65,2 klux
21.05.2024 09:45 17,3 C 38 % 996 hPa 0,0 l/m 14,5 km/h O45 80 5 min 59,2 klux
21.05.2024 09:40 16,8 C 40 % 996 hPa 0,0 l/m 11,8 km/h O-NO45 65 5 min 58,3 klux
21.05.2024 09:35 16,2 C 39 % 996 hPa 0,0 l/m 15,7 km/h O-NO45 70 5 min 52,7 klux
21.05.2024 09:30 16,2 C 39 % 996 hPa 0,0 l/m 13,8 km/h O-NO45 75 0 min 38,7 klux
21.05.2024 09:24 16,1 C 40 % 996 hPa 0,0 l/m 15,1 km/h O-NO45 60 4 min 54,6 klux
21.05.2024 09:20 15,8 C 40 % 996 hPa 0,0 l/m 16,9 km/h O-NO45 60 5 min 55,2 klux
21.05.2024 09:15 15,9 C 40 % 996 hPa 0,0 l/m 12,8 km/h O-NO45 65 5 min 48,2 klux
21.05.2024 09:10 15,3 C 41 % 996 hPa 0,0 l/m 11,5 km/h O45 85 5 min 52,6 klux
21.05.2024 09:05 14,7 C 44 % 996 hPa 0,0 l/m 11,1 km/h O45 80 5 min 52,4 klux
21.05.2024 09:00 14,2 C 46 % 996 hPa 0,0 l/m 19,0 km/h O-NO22.5 65 5 min 51,9 klux
21.05.2024 08:55 14,0 C 46 % 996 hPa 0,0 l/m 17,0 km/h O-NO67.5 70 5 min 50,3 klux
21.05.2024 08:50 13,9 C 49 % 996 hPa 0,0 l/m 17,1 km/h O-NO67.5 70 5 min 49,2 klux
21.05.2024 08:45 13,6 C 51 % 996 hPa 0,0 l/m 10,8 km/h O45 80 5 min 47,5 klux
21.05.2024 08:40 13,5 C 55 % 996 hPa 0,0 l/m 15,7 km/h O-NO45 75 5 min 46,1 klux
21.05.2024 08:35 13,0 C 57 % 996 hPa 0,0 l/m 13,8 km/h O-NO45 60 5 min 44,9 klux
21.05.2024 08:30 12,6 C 66 % 996 hPa 0,0 l/m 17,2 km/h O-NO45 65 5 min 42,7 klux
21.05.2024 08:25 12,3 C 71 % 996 hPa 0,0 l/m 12,2 km/h O-NO45 60 5 min 41,9 klux
21.05.2024 08:20 12,1 C 76 % 996 hPa 0,0 l/m 12,9 km/h O45 80 5 min 40,5 klux
21.05.2024 08:15 11,8 C 79 % 996 hPa 0,0 l/m 9,8 km/h O-NO22.5 70 5 min 39,4 klux
21.05.2024 08:10 11,8 C 79 % 996 hPa 0,0 l/m 6,8 km/h O-NO22.5 60 5 min 37,4 klux
21.05.2024 08:05 11,7 C 80 % 996 hPa 0,0 l/m 9,0 km/h O 80 5 min 36,5 klux
21.05.2024 08:00 11,6 C 81 % 996 hPa 0,0 l/m 9,8 km/h O-NO45 75 5 min 36,6 klux
21.05.2024 07:55 11,5 C 82 % 996 hPa 0,0 l/m 12,8 km/h NO45 55 5 min 34,9 klux
21.05.2024 07:50 11,5 C 82 % 996 hPa 0,0 l/m 10,6 km/h NO 45 5 min 33,0 klux
21.05.2024 07:45 11,3 C 83 % 996 hPa 0,0 l/m 13,2 km/h NO22.5 45 5 min 31,5 klux
21.05.2024 07:40 11,2 C 83 % 996 hPa 0,0 l/m 9,0 km/h O-NO22.5 60 5 min 30,5 klux
21.05.2024 07:35 11,1 C 83 % 996 hPa 0,0 l/m 13,8 km/h NO22.5 55 5 min 29,0 klux
21.05.2024 07:30 11,1 C 83 % 996 hPa 0,0 l/m 10,5 km/h NO45 55 5 min 26,9 klux
21.05.2024 07:25 11,0 C 84 % 996 hPa 0,0 l/m 7,2 km/h O-NO22.5 70 0 min 9,1 klux
21.05.2024 07:20 10,9 C 84 % 996 hPa 0,0 l/m 5,0 km/h O 80 0 min 6,82 klux
21.05.2024 07:15 10,9 C 84 % 996 hPa 0,0 l/m 10,1 km/h O-NO22.5 65 0 min 6,74 klux
21.05.2024 07:10 10,8 C 85 % 996 hPa 0,0 l/m 10,0 km/h O-NO22.5 75 0 min 6,52 klux
21.05.2024 07:05 10,7 C 84 % 996 hPa 0,0 l/m 6,9 km/h O-NO 75 0 min 6,30 klux
21.05.2024 07:00 10,6 C 85 % 996 hPa 0,0 l/m 4,8 km/h O-NO 75 0 min 6,06 klux
21.05.2024 06:55 10,5 C 84 % 996 hPa 0,0 l/m 9,0 km/h O-NO 65 0 min 5,77 klux
_ Min-Zeit 05:10 16:04 14:15 - 20:04 - - - -
Minimum _ 10,3 C 0 % 993 hPa - 0,0 km/h - - - -
_ Max-Zeit 16:34 05:40 20:44 16:04 11:40 - - 16:04 12:55
Maximum _ 35,6 C 85 % 997 hPa 0,0 l/m 30,8 km/h
O-NO
- - 5 min 89,4 klux
Durchschnitt _ 19,6 C 37 % 996 hPa #0,0 l/m 8,9 km/h O-NO - #6:49 h 31,4 klux
copyright Stefan Zilt